timestamp,wind_dir_avg,wind_spd_avg,wind_spd_max_dir,wind_spd_gust,battery_voltage,lat,long
2023-06-29 00:04:00+00:00,227.0,4.7,225.0,5.07,12.65,47.59359,-54.27349
2023-06-29 00:14:00+00:00,235.0,3.94,233.0,4.5,12.41,47.59359,-54.27349
2023-06-29 00:24:00+00:00,228.0,3.91,228.0,4.51,12.41,47.59359,-54.27349
2023-06-29 00:34:00+00:00,220.0,3.59,212.0,4.38,12.41,47.59359,-54.27349
2023-06-29 00:44:00+00:00,230.0,2.95,236.0,3.38,12.41,47.59359,-54.27349
2023-06-29 00:54:00+00:00,221.0,1.94,221.0,2.15,12.41,47.59359,-54.27349
2023-06-29 01:04:00+00:00,219.0,1.69,221.0,1.87,12.41,47.59359,-54.27349
2023-06-29 01:14:01+00:00,241.0,2.3,243.0,2.44,12.41,47.59359,-54.27349
2023-06-29 01:24:01+00:00,224.0,1.99,223.0,2.46,12.41,47.59359,-54.27349
2023-06-29 01:34:01+00:00,217.0,3.44,218.0,3.62,12.41,47.59359,-54.27349
2023-06-29 01:44:01+00:00,241.0,2.42,241.0,2.72,12.41,47.59359,-54.27349
2023-06-29 01:54:01+00:00,180.0,2.47,171.0,2.82,12.41,47.59359,-54.27349
2023-06-29 02:04:01+00:00,212.0,2.18,209.0,2.86,12.41,47.59359,-54.27349
2023-06-29 02:14:01+00:00,209.0,1.92,208.0,2.38,12.41,47.59359,-54.27349
2023-06-29 02:24:01+00:00,205.0,2.59,206.0,2.81,12.41,47.59359,-54.27349
2023-06-29 02:34:01+00:00,212.0,3.21,207.0,3.61,12.41,47.59359,-54.27349
2023-06-29 02:44:01+00:00,215.0,4.81,216.0,5.49,12.41,47.59359,-54.27349
2023-06-29 02:54:01+00:00,224.0,4.58,223.0,5.01,12.41,47.59359,-54.27349
2023-06-29 03:04:01+00:00,218.0,4.99,217.0,5.51,12.41,47.59359,-54.27349
2023-06-29 03:14:01+00:00,219.0,5.09,222.0,5.66,12.33,47.59359,-54.27349
2023-06-29 03:24:01+00:00,219.0,4.88,217.0,5.22,12.33,47.59359,-54.27349
2023-06-29 03:34:01+00:00,215.0,5.31,215.0,5.86,12.33,47.59359,-54.27349
2023-06-29 03:44:01+00:00,215.0,5.35,216.0,5.82,12.33,47.59359,-54.27349
2023-06-29 03:54:01+00:00,210.0,5.76,212.0,6.39,12.33,47.59359,-54.27349
2023-06-29 04:04:01+00:00,208.0,5.8,211.0,6.41,12.33,47.59359,-54.27349
2023-06-29 04:14:01+00:00,215.0,5.48,213.0,6.16,12.33,47.59359,-54.27349
2023-06-29 04:24:01+00:00,206.0,5.26,206.0,5.85,12.33,47.59359,-54.27349
2023-06-29 04:34:01+00:00,209.0,5.23,207.0,5.76,12.33,47.59359,-54.27349
2023-06-29 04:44:01+00:00,220.0,5.45,224.0,5.98,12.33,47.59359,-54.27349
2023-06-29 04:54:01+00:00,218.0,4.82,217.0,5.24,12.33,47.59359,-54.27349
2023-06-29 05:04:01+00:00,217.0,4.87,221.0,5.58,12.33,47.59359,-54.27349
2023-06-29 05:14:01+00:00,218.0,5.38,216.0,6.16,12.33,47.59359,-54.27349
2023-06-29 05:24:01+00:00,217.0,5.94,217.0,6.49,12.33,47.59359,-54.27349
2023-06-29 05:34:01+00:00,216.0,6.19,214.0,6.99,12.33,47.59359,-54.27349
2023-06-29 05:44:01+00:00,219.0,4.86,217.0,5.65,12.33,47.59359,-54.27349
2023-06-29 05:54:01+00:00,218.0,5.67,220.0,6.29,12.33,47.59359,-54.27349
2023-06-29 06:04:01+00:00,210.0,5.63,211.0,6.11,12.33,47.59359,-54.27349
2023-06-29 06:14:01+00:00,210.0,5.28,211.0,5.69,12.25,47.59359,-54.27349
2023-06-29 06:24:01+00:00,212.0,6.06,213.0,6.63,12.25,47.59359,-54.27349
2023-06-29 06:34:01+00:00,216.0,5.45,218.0,6.47,12.25,47.59359,-54.27349
2023-06-29 06:44:01+00:00,215.0,5.51,216.0,6.46,12.25,47.59359,-54.27349
2023-06-29 06:54:01+00:00,209.0,5.73,211.0,6.29,12.25,47.59359,-54.27349
2023-06-29 07:04:01+00:00,222.0,5.83,223.0,6.61,12.25,47.59359,-54.27349
2023-06-29 07:14:01+00:00,221.0,5.3,218.0,6.12,12.25,47.59359,-54.27349
2023-06-29 07:24:01+00:00,215.0,5.63,216.0,6.36,12.25,47.59359,-54.27349
2023-06-29 07:34:01+00:00,216.0,5.41,217.0,6.22,12.25,47.59359,-54.27349
2023-06-29 07:44:01+00:00,212.0,5.79,216.0,6.37,12.25,47.59359,-54.27349
2023-06-29 07:54:01+00:00,215.0,6.07,216.0,6.47,12.25,47.59359,-54.27349
2023-06-29 08:04:01+00:00,215.0,6.5,215.0,7.51,12.25,47.59359,-54.27349
2023-06-29 08:14:01+00:00,216.0,5.17,214.0,5.63,12.17,47.59359,-54.27349
2023-06-29 08:24:01+00:00,219.0,5.15,220.0,6.19,12.17,47.59359,-54.27349
2023-06-29 08:34:01+00:00,216.0,6.13,216.0,6.59,12.17,47.59359,-54.27349
2023-06-29 08:44:01+00:00,218.0,6.16,216.0,6.76,12.17,47.59359,-54.27349
2023-06-29 08:54:01+00:00,219.0,6.25,224.0,6.73,12.17,47.59359,-54.27349
2023-06-29 09:04:01+00:00,224.0,6.06,227.0,6.73,12.17,47.59359,-54.27349
2023-06-29 09:14:00+00:00,221.0,6.46,217.0,7.37,12.33,47.59359,-54.27349
2023-06-29 09:24:00+00:00,222.0,5.5,226.0,6.23,12.33,47.59359,-54.27349
2023-06-29 09:34:00+00:00,218.0,5.21,225.0,5.76,12.33,47.59359,-54.27349
2023-06-29 09:44:00+00:00,315.0,0.01,218.0,0.0,12.33,47.59359,-54.27349
2023-06-29 09:54:00+00:00,218.0,5.27,215.0,5.77,12.33,47.59359,-54.27349
2023-06-29 10:04:00+00:00,216.0,4.8,213.0,5.55,12.33,47.59359,-54.27349
2023-06-29 10:14:00+00:00,219.0,3.97,220.0,4.27,12.97,47.59359,-54.27349
2023-06-29 10:24:00+00:00,218.0,4.67,217.0,5.24,12.97,47.59359,-54.27349
2023-06-29 10:34:00+00:00,216.0,5.88,215.0,6.29,12.97,47.59359,-54.27349
2023-06-29 10:44:00+00:00,217.0,5.57,226.0,6.09,12.97,47.59359,-54.27349
2023-06-29 10:54:00+00:00,215.0,5.24,215.0,5.93,12.97,47.59359,-54.27349
2023-06-29 11:04:00+00:00,209.0,5.51,210.0,6.17,12.97,47.59359,-54.27349
2023-06-29 11:14:01+00:00,214.0,6.01,211.0,6.4,13.44,47.59359,-54.27349
2023-06-29 11:24:01+00:00,218.0,6.09,220.0,6.92,13.44,47.59359,-54.27349
2023-06-29 11:34:01+00:00,214.0,6.59,214.0,7.16,13.44,47.59359,-54.27349
2023-06-29 11:44:01+00:00,223.0,3.87,222.0,4.49,13.44,47.59359,-54.27349
2023-06-29 11:54:01+00:00,228.0,6.16,233.0,6.76,13.44,47.59359,-54.27349
2023-06-29 12:04:01+00:00,217.0,6.01,225.0,6.54,13.44,47.59359,-54.27349
2023-06-29 12:14:01+00:00,211.0,6.5,210.0,7.08,13.6,47.59359,-54.27349
2023-06-29 12:24:01+00:00,208.0,6.03,210.0,6.69,13.6,47.59359,-54.27349
2023-06-29 12:34:01+00:00,205.0,6.65,206.0,7.17,13.6,47.59359,-54.27349
2023-06-29 12:44:01+00:00,200.0,6.34,202.0,7.05,13.6,47.59359,-54.27349
2023-06-29 12:54:01+00:00,198.0,6.94,197.0,7.46,13.6,47.59359,-54.27349
2023-06-29 13:04:01+00:00,201.0,7.78,203.0,8.63,13.6,47.59359,-54.27349
2023-06-29 13:14:01+00:00,203.0,7.73,204.0,8.43,13.76,47.59359,-54.27349
2023-06-29 13:24:01+00:00,194.0,7.88,197.0,8.77,13.76,47.59359,-54.27349
2023-06-29 13:34:01+00:00,202.0,8.63,204.0,9.63,13.76,47.59359,-54.27349
2023-06-29 13:44:01+00:00,204.0,8.68,204.0,9.87,13.76,47.59359,-54.27349
2023-06-29 13:54:01+00:00,201.0,8.2,201.0,9.07,13.76,47.59359,-54.27349
2023-06-29 14:04:01+00:00,197.0,8.97,199.0,9.63,13.76,47.59359,-54.27349
2023-06-29 14:14:00+00:00,199.0,9.02,201.0,9.94,13.68,47.59359,-54.27349
2023-06-29 14:24:00+00:00,203.0,8.52,205.0,9.7,13.68,47.59359,-54.27349
2023-06-29 14:34:00+00:00,201.0,9.1,202.0,9.83,13.68,47.59359,-54.27349
2023-06-29 14:44:00+00:00,203.0,9.44,200.0,10.21,13.68,47.59359,-54.27349
2023-06-29 14:54:00+00:00,195.0,8.95,198.0,9.78,13.68,47.59359,-54.27349
2023-06-29 15:04:00+00:00,193.0,9.96,193.0,10.81,13.68,47.59359,-54.27349
2023-06-29 15:14:00+00:00,198.0,9.26,200.0,10.18,14.0,47.59359,-54.27349
2023-06-29 15:24:00+00:00,195.0,8.46,195.0,9.66,14.0,47.59359,-54.27349
2023-06-29 15:34:00+00:00,197.0,8.2,194.0,9.58,14.0,47.59359,-54.27349
2023-06-29 15:44:00+00:00,207.0,8.45,204.0,9.32,14.0,47.59359,-54.27349
2023-06-29 15:54:00+00:00,212.0,7.85,211.0,8.88,14.0,47.59359,-54.27349
2023-06-29 16:04:00+00:00,211.0,7.69,219.0,8.66,14.0,47.59359,-54.27349
2023-06-29 16:14:00+00:00,211.0,7.93,212.0,9.04,14.32,47.59359,-54.27349
2023-06-29 16:24:00+00:00,204.0,10.14,205.0,11.08,14.32,47.59359,-54.27349
2023-06-29 16:34:00+00:00,204.0,9.2,203.0,10.08,14.32,47.59359,-54.27349
2023-06-29 16:44:00+00:00,194.0,7.81,190.0,8.8,14.32,47.59359,-54.27349
2023-06-29 16:54:00+00:00,197.0,6.81,198.0,7.64,14.32,47.59359,-54.27349
2023-06-29 17:04:00+00:00,204.0,7.05,204.0,7.72,14.32,47.59359,-54.27349
2023-06-29 17:14:00+00:00,205.0,7.47,204.0,8.25,14.32,47.59359,-54.27349
2023-06-29 17:24:00+00:00,207.0,8.19,206.0,9.27,14.32,47.59359,-54.27349
2023-06-29 17:34:00+00:00,205.0,8.2,206.0,8.97,14.32,47.59359,-54.27349
2023-06-29 17:44:00+00:00,202.0,8.04,200.0,8.88,14.32,47.59359,-54.27349
2023-06-29 17:54:00+00:00,204.0,8.08,204.0,9.13,14.32,47.59359,-54.27349
2023-06-29 18:04:00+00:00,202.0,9.33,200.0,10.22,14.32,47.59359,-54.27349
2023-06-29 18:14:00+00:00,201.0,9.3,201.0,10.18,13.68,47.59359,-54.27349
2023-06-29 18:24:00+00:00,204.0,8.2,204.0,9.08,13.68,47.59359,-54.27349
2023-06-29 18:34:00+00:00,202.0,8.67,199.0,9.77,13.68,47.59359,-54.27349
2023-06-29 18:44:00+00:00,199.0,9.01,198.0,9.78,13.68,47.59359,-54.27349
2023-06-29 18:54:00+00:00,201.0,8.69,201.0,9.34,13.68,47.59359,-54.27349
2023-06-29 19:04:00+00:00,201.0,7.91,203.0,8.77,13.68,47.59359,-54.27349
2023-06-29 19:14:00+00:00,198.0,8.0,197.0,9.17,13.6,47.59359,-54.27349
2023-06-29 19:24:00+00:00,202.0,8.34,203.0,9.34,13.6,47.59359,-54.27349
2023-06-29 19:34:00+00:00,200.0,7.72,201.0,8.73,13.6,47.59359,-54.27349
2023-06-29 19:44:00+00:00,204.0,9.38,205.0,10.34,13.6,47.59359,-54.27349
2023-06-29 19:54:00+00:00,198.0,9.42,200.0,10.5,13.6,47.59359,-54.27349
2023-06-29 20:04:00+00:00,196.0,9.08,197.0,10.06,13.6,47.59359,-54.27349
2023-06-29 20:14:01+00:00,199.0,10.05,199.0,11.12,13.68,47.59359,-54.27349
2023-06-29 20:24:01+00:00,208.0,10.38,214.0,12.01,13.68,47.59359,-54.27349
2023-06-29 20:34:01+00:00,206.0,9.45,211.0,10.75,13.68,47.59359,-54.27349
2023-06-29 20:44:01+00:00,205.0,8.86,204.0,10.3,13.68,47.59359,-54.27349
2023-06-29 20:54:01+00:00,200.0,8.19,201.0,8.93,13.68,47.59359,-54.27349
2023-06-29 21:04:01+00:00,198.0,9.26,203.0,10.03,13.68,47.59359,-54.27349
2023-06-29 21:14:00+00:00,201.0,8.77,200.0,9.44,13.68,47.59359,-54.27349
2023-06-29 21:24:00+00:00,206.0,8.23,205.0,9.07,13.68,47.59359,-54.27349
2023-06-29 21:34:00+00:00,205.0,7.79,204.0,8.61,13.68,47.59359,-54.27349
2023-06-29 21:44:00+00:00,206.0,7.58,207.0,8.35,13.68,47.59359,-54.27349
2023-06-29 21:54:00+00:00,204.0,8.05,206.0,8.74,13.68,47.59359,-54.27349
2023-06-29 22:04:00+00:00,202.0,9.23,205.0,10.13,13.68,47.59359,-54.27349
2023-06-29 22:14:01+00:00,205.0,8.87,206.0,9.78,13.21,47.59359,-54.27349
2023-06-29 22:24:01+00:00,206.0,9.52,210.0,10.5,13.21,47.59359,-54.27349
2023-06-29 22:34:01+00:00,216.0,9.0,227.0,11.08,13.21,47.59359,-54.27349
2023-06-29 22:44:01+00:00,215.0,7.01,219.0,8.01,13.21,47.59359,-54.27349
2023-06-29 22:54:01+00:00,218.0,7.0,222.0,8.18,13.21,47.59359,-54.27349
2023-06-29 23:04:01+00:00,210.0,5.62,209.0,6.29,13.21,47.59359,-54.27349
2023-06-29 23:14:00+00:00,215.0,5.66,218.0,6.63,12.73,47.59359,-54.27349
2023-06-29 23:24:00+00:00,204.0,6.55,205.0,7.18,12.73,47.59359,-54.27349
2023-06-29 23:34:00+00:00,209.0,6.96,212.0,7.69,12.73,47.59359,-54.27349
2023-06-29 23:44:00+00:00,211.0,6.94,208.0,7.78,12.73,47.59359,-54.27349
2023-06-29 23:54:00+00:00,213.0,6.74,213.0,7.14,12.73,47.59359,-54.27349
